Regional Weather Roundup
Issued by NWS

Home | Current Version | Previous Version | Text Only | Print | Product List | Glossary On
Versions: 1 2 3 4 5 6 7 8 9 10 11 12 13 14 15 16 17 18 19 20 21 22 23 24 25 26 27 28 29 30 31 32 33 34 35 36 37 38 39 40 41 42 43 44 45 46 47 48 49 50
000
ASUS43 KLSX 302107
RWRMO

WEATHER SUMMARY FOR MISSOURI
NATIONAL WEATHER SERVICE SPRINGFIELD MO
400 PM CDT WED JUL 30 2014

NOTE: "FAIR" INDICATES FEW OR NO CLOUDS BELOW 12,000 FEET WITH NO
       SIGNIFICANT WEATHER AND/OR OBSTRUCTIONS TO VISIBILITY.
       CURRENT SKY AND/OR WEATHER CONDITIONS ARE NOT AVAILABLE FOR
       CHILLICOTHE AND FARMINGTON.

MOZ001>031-035>038-043-044-053-054-302200-
...NORTHERN AND WESTERN MISSOURI...

CITY           SKY/WX    TMP DP  RH WIND       PRES   REMARKS
KANSAS CTY INT CLOUDY    80  54  40 N6        30.09F
KANSAS C DTWN  CLOUDY    80  55  42 N3        30.07F
LEE`S SUMMIT   CLOUDY    78  57  48 S5        30.09F
ST JOSEPH      PTSUNNY   81  57  43 N6        30.09F
CHILLICOTHE      N/A     82  55  39 VRB5      30.08F
KIRKSVILLE     PTSUNNY   79  55  43 N5        30.09F

$$
MOZ066>068-077>081-088>096-101>105-302200-
...SOUTHWEST MISSOURI...

CITY           SKY/WX    TMP DP  RH WIND       PRES   REMARKS
SPRINGFIELD    LGT RAIN  71  64  78 CALM      30.10S
JOPLIN         LGT RAIN  68  66  93 E5        30.09F

$$
MOZ032>034-039>042-045>050-055>058-069>072-302200-
...CENTRAL MISSOURI...

CITY           SKY/WX    TMP DP  RH WIND       PRES   REMARKS
COLUMBIA       PTSUNNY   80  56  43 NW3       30.07F
JEFFERSON CITY PTSUNNY   82  54  37 CALM      30.05F
ROLLA          CLOUDY    76  56  49 VRB3      30.08F
SEDALIA        PTSUNNY   79  60  52 SW9       30.08F
WHITEMAN AFB   MOSUNNY   78  48  34 S6        30.08F
OSAGE BEACH    CLOUDY    75  57  53 E5        30.09F

$$
MOZ051-052-059>065-302200-
...EAST CENTRAL MISSOURI...

CITY           SKY/WX    TMP DP  RH WIND       PRES   REMARKS
ST LOUIS INTL  PTSUNNY   85  55  35 N7        30.06F
SPIRIT OF STL  PTSUNNY   81  54  39 NW5       30.04F
ST CHARLES     PTSUNNY   82  56  40 N5        30.05F

$$
MOZ072>076-082>087-097>100-106>115-302200-
...SOUTH CENTRAL AND SOUTHEAST MISSOURI...

CITY           SKY/WX    TMP DP  RH WIND       PRES   REMARKS
CAPE GIRARDEAU CLOUDY    76  63  64 CALM      30.09F
FARMINGTON     CLOUDY    75  61  60 SW7       30.11S
POPLAR BLUFF   CLOUDY    78  61  55 S6        30.07F
WEST PLAINS    CLOUDY    70  65  84 SW6       30.11F

$$


USA.gov is the U.S. government's official web portal to all federal, state and local government web resources and services.